Location: Althorst
(53.6379°N, 10.7715°E)
Time: 06:56:33
(UTC+00:00)

Cosmos 1634 Rocket - Pass Details

Date: 10 December 2019
Orbit: 960 x 992 km, 82.9° (Epoch: 17 January)

Event Time Altitude Azimuth Distance (km) Brightness Sun altitude
Rises 15:31:57 0° 348° (NNW) 3,658 6.8 -5.0°
Reaches altitude 10° 15:34:27 10° 348° (NNW) 2,708 6.1 -5.4°
Maximum altitude 15:40:39 84° 263° (W) 975 4.1 -6.1°
Drops below altitude 10° 15:46:51 10° 175° (S) 2,700 6.7 -6.9°
Sets 15:49:20 0° 174° (S) 3,647 7.3 -7.2°
